Regional Weather Roundup
Issued by NWS

Home | Current Version | Previous Version | Text Only | Print | Product List | Glossary Off
Versions: 1 2 3 4 5 6 7 8 9 10 11 12 13 14 15 16 17 18 19 20 21 22 23 24 25 26 27 28 29 30 31 32 33 34 35 36 37 38 39 40 41 42 43 44 45 46 47 48 49 50

921
ASUS43 KLOT 241609
RWRIL

ILLINOIS REGIONAL WEATHER ROUNDUP
NATIONAL WEATHER SERVICE CHICAGO/ROMEOVILLE IL
1100 AM CDT WED AUG 24 2016

NOTE: "FAIR" INDICATES FEW OR NO CLOUDS BELOW 12,000 FEET WITH NO
SIGNIFICANT WEATHER AND/OR OBSTRUCTIONS TO VISIBILITY.

* THESE STATIONS ARE NOT UNDER NWS QUALITY CONTROL. THEY ALSO MAY NOT
  REPORT WEATHER SUCH AS PRECIPITATION OR FOG.

ILZ001-002-007-009-015-016-024-241700-
NORTHWEST ILLINOIS

CITY           SKY/WX    TMP DP  RH WIND       PRES   REMARKS
MOLINE         PTSUNNY   81  72  74 SW14      29.92R HX  85
STERLING*      LGT RAIN  73  72  96 VRB5      29.94S
SAVANNA*       CLOUDY    74  71  92 CALM      29.94R
$$

ILZ003-004-008-010-011-017-018-241700-
NORTH CENTRAL ILLINOIS

CITY           SKY/WX    TMP DP  RH WIND       PRES   REMARKS
ROCKFORD       CLOUDY    75  71  87 S16G26    29.94F
FREEPORT*      CLOUDY    72  69  93 S9        29.96S
ROCHELLE*      CLOUDY    73  70  91 S10       29.94F
DE KALB*       CLOUDY    74  71  92 S20       29.96F
$$

ILZ005-006-012>014-019>023-241700-
NORTHEAST ILLINOIS

CITY           SKY/WX    TMP DP  RH WIND       PRES   REMARKS
CHICAGO-OHARE  LGT RAIN  73  71  93 S13       29.97S FOG
CHICAGO-MIDWAY RAIN      74  71  91 SW15      30.00R
AURORA         CLOUDY    74  72  93 SE16      29.96F
LANSING*       CLOUDY    73  70  89 SW10G16   30.01S
JOLIET*        RAIN      74  73  98 SE6       29.99F
WAUKEGAN       LGT RAIN  74  71  91 S9        29.95R
DUPAGE AIRPORT LGT RAIN  73  70  90 S14       29.94F
KANKAKEE*      CLOUDY    72  71  97 S3        30.02R
WHEELING       LGT RAIN  73  71  93 S17       29.97F
MORRIS*        RAIN      72  71  96 SE6       29.97F
ROMEOVILLE*    RAIN      72  70  93 SE7       29.99F
NORTHERLY ISL    N/A     73  69  87 S15         N/A
$$

LMZ740>746-241700-
SOUTHERN LAKE MICHIGAN

STATION/POSITION SKY/WX   TEMP    WIND        PRES    VSBY  WAVE
                          AIR SEA DIR/SP/G                  HT/PER
                          (F)     (DEG/KT/KT) (MB)    (MI)  (FT/S)
SOUTHERN BUOY              73 74  170/ 19/ 23 1013.2F         4/ 6
WILMETTE HARBOR            71 69  210/ 12/ 16   N/A           2/ 4
HARRISON CRIB              71     170/ 12/ 12   N/A
BURNHAM HARBOR             73     190/ 10/ 15   N/A
CALUMET HARBOR             72     170/ 11/ 14 1015.3F
BURNS HARBOR               72     180/ 11/ 17 1016.9F
MICHIGAN CITY              72     150/ 10/ 15   N/A
MICHIGAN CITY 6N           73 73  190/ 12/ 16   N/A           2/ 3
ST. JOSEPH                 74 74  170/ 14/ 17 1015.5F         3/ 4
$$

ILZ025>027-034>036-040-047-049-050-058-095>099-241700-
WEST-CENTRAL ILLINOIS

CITY           SKY/WX    TMP DP  RH WIND       PRES   REMARKS
QUINCY         CLOUDY    80  74  81 W13       30.01R HX  85
GALESBURG*     PTSUNNY   79  70  72 SW10      29.96R HX  82
MACOMB*        PTSUNNY   79  70  74 W16       30.00R HX  81
JACKSONVILLE*  CLOUDY    82  74  75 SW13G24   30.01R HX  88
PITTSFIELD*    CLOUDY    82  74  74 W15       30.02R HX  88
$$

ILZ028>032-037-038-041>044-048-051>054-059>061-241700-
CENTRAL ILLINOIS

CITY           SKY/WX    TMP DP  RH WIND       PRES   REMARKS
PONTIAC        CLOUDY    76  76  98 S7        29.99S
BLOOMINGTON    CLOUDY    79  75  87 SW14G21   30.01S HX  83
DECATUR        PTSUNNY   83  74  74 SW17G28   30.02R HX  89
PEORIA         MOSUNNY   82  76  81 SW14      29.96R HX  89
LACON*         CLOUDY    78  74  85 S13       29.94S HX  81
LINCOLN*       PTSUNNY   83  76  80 SW6       30.00R HX  91
SPRINGFIELD    PTSUNNY   83  74  74 SW15G23   30.01R HX  89
TAYLORVILLE    CLOUDY    80  74  82 SW12G21   30.03R HX  84
$$

ILZ033-039-045-046-055>057-062-063-241700-
EAST-CENTRAL ILLINOIS

CITY           SKY/WX    TMP DP  RH WIND       PRES   REMARKS
CHAMPAIGN      PTSUNNY   80  74  81 S16G23    30.01F HX  85
RANTOUL*       CLOUDY    78  76  92 S9        30.01F HX  82
MATTOON        MOSUNNY   82  74  76 S16G24    30.03F HX  88
PARIS*         CLOUDY    80  76  86 S9        30.06F HX  86
$$

ILZ079-100>102-241700-
SOUTHWEST ILLINOIS

CITY           SKY/WX    TMP DP  RH WIND       PRES   REMARKS
ALTON          MOSUNNY   84  73  70 S12       30.03  HX  91
BELLEVILLE     PTSUNNY   86  73  66 SW16G70   30.03F SQUALL  HX  93
CAHOKIA*       MOSUNNY   86  73  65 S8G24     30.02F HX  93
SPARTA*        CLOUDY    80  75  85 S12       30.08F HX  85
$$

ILZ064>066-069>071-074>076-080>082-084>086-088>090-092>094-241700-
SOUTH-CENTRAL ILLINOIS

CITY           SKY/WX    TMP DP  RH WIND       PRES   REMARKS
CARBONDALE     MOSUNNY   84  73  69 SW17G24   30.11R HX  90
CAIRO*         CLOUDY    85  78  80 SW7       30.14S HX  95
EFFINGHAM*     PTSUNNY   84  77  78 S12       30.07F HX  94
MARION         PTSUNNY   86  77  74 SW16      30.12S HX  97
MT. VERNON     CLOUDY    84  73  70 SW13      30.09F HX  91
CENTRALIA*     CLOUDY    83  76  80 SW14      30.07S HX  91
SALEM*         CLOUDY    83  75  77 S10G20    30.08R HX  90
$$

ILZ067-068-072-073-078-083-087-091-241700-
SOUTHEAST ILLINOIS

CITY           SKY/WX    TMP DP  RH WIND       PRES   REMARKS
LAWRENCEVILLE  MOSUNNY   86  75  69 SW21G26   30.10S HX  95
FLORA*         PTSUNNY   84  76  76 SW12      30.09S HX  93
FAIRFIELD*     CLOUDY    84  76  77 SW9       30.09F HX  93
HARRISBURG*    MOSUNNY   85  77  75 SW16      30.12S HX  96
ROBINSON*      SUNNY     82  75  79 SW13G23   30.09F HX  89
CARMI*         PTSUNNY   85  76  76 SW13G18   30.12S HX  94
$$

ABBREVIATIONS USED IN REMARKS
   TC - TEMPERATURE IN CELSIUS
  WCI - WIND CHILL INDEX
   HX - HEAT INDEX
  VSB - VISIBILITY
$$





USA.gov is the U.S. government's official web portal to all federal, state and local government web resources and services.